Location: Équennes
(49.7375°N, 1.9622°E)
Time: 18:11:10
(UTC+00:00)

Cosmos 2278 - Pass Details

Date: 25 September 2023
Orbit: 838 x 853 km, 71.1° (Epoch: 08 December)

Event Time Altitude Azimuth Distance (km) Brightness Sun altitude
Rises 01:55:51 0° 333° (NNW) 3,426 7.1 -33.5°
Reaches altitude 10° 01:58:23 10° 338° (NNW) 2,489 6.4 -33.2°
Maximum altitude 02:03:58 51° 54° (NE) 1,069 4.4 -32.6°
Enters shadow 02:05:10 44° 92° (E) 1,175 4.6 -32.5°
Exits shadow 02:11:45 - 135° (SE) 3,311 6.8 -31.7°
Sets 02:12:01 0° 136° (SE) 3,412 6.9 -31.7°
